Weather History for Quincy, IL

Change the Weather History Date:

Tuesday, August 28, 2012

  Actual Average Record
Temperature  
Mean Temperature 78 °F 73 °F  
Max Temperature 91 °F 83 °F 101 °F (1984)
Min Temperature 66 °F 63 °F 42 °F (1986)
Degree Days  
Heating Degree Days 0 0  
Month to date heating degree days 0  
Since 1 June heating degree days 16  
Since 1 July heating degree days 0  
Cooling Degree Days 14 8  
Month to date cooling degree days 274  
Year to date cooling degree days 930  
Since 1 June cooling degree days 844  
Growing Degree Days 28 (Base 50)    
Moisture  
Dew Point 60 °F    
Average Humidity 55    
Maximum Humidity 87    
Minimum Humidity 29    
Precipitation  
Precipitation 0.00 in 0.11 in 2.43 in (1977)
Month to date precipitation 3.28  
Year to date precipitation 25.40  
Sea Level Pressure  
Sea Level Pressure 30.07 in    
Wind  
Wind Speed 2 mph (NE)    
Max Wind Speed 8 mph    
Max Gust Speed -    
Visibility 10 miles    
Events      
T = Trace of Precipitation, MM = Missing Value Source: NWS Daily Summary

Daily Weather History Graph

Daily Weather History Graph

Search for Another Location

Airport:

Trip Planner

Search our weather history database for the weather conditions in past years. The results will help you decide how hot, cold, wet, or windy it might be!

Date:

Astronomy

Aug. 28, 2012 Rise Set
Actual Time 6:29 AM CDT 7:41 PM CDT
Civil Twilight 6:01 AM CDT 8:09 PM CDT
Nautical Twilight 5:27 AM CDT 8:42 PM CDT
Astronomical Twilight 4:52 AM CDT 9:17 PM CDT
Moon 5:44 PM CDT (8/28) 3:19 AM CDT (8/28)
Length of Visible Light 14h 08m
Length of Day
13h 12m
Waxing Gibbous, 90% of the Moon is Illuminated
Aug 28
Waxing Gibbous
Aug 31
Full
Sep 8
Last Quarter
Sep 15
New
Sep 22
First Quarter

Hourly Weather History & Observations

Time (CDT) Temp. Heat Index Dew Point Humidity Pressure Visibility Wind Dir Wind Speed Gust Speed Precip Events Conditions
12:54 AM 73.0 °F - 60.1 °F 64% 30.09 in 10.0 mi Calm Calm - N/A   Clear
1:54 AM 73.0 °F - 61.0 °F 66% 30.09 in 10.0 mi Calm Calm - N/A   Clear
2:54 AM 72.0 °F - 59.0 °F 64% 30.08 in 10.0 mi ESE 3.5 mph - N/A   Clear
3:54 AM 66.9 °F - 62.1 °F 84% 30.09 in 10.0 mi Calm Calm - N/A   Clear
4:54 AM 66.0 °F - 62.1 °F 87% 30.09 in 10.0 mi Calm Calm - N/A   Clear
5:54 AM 66.0 °F - 62.1 °F 87% 30.09 in 10.0 mi WNW 4.6 mph - N/A   Clear
6:54 AM 66.9 °F - 62.1 °F 84% 30.11 in 10.0 mi WNW 3.5 mph - N/A   Clear
7:54 AM 70.0 °F - 64.0 °F 81% 30.12 in 10.0 mi Calm Calm - N/A   Clear
8:54 AM 77.0 °F - 64.0 °F 64% 30.13 in 10.0 mi Calm Calm - N/A   Clear
9:54 AM 82.0 °F 83.0 °F 62.1 °F 51% 30.13 in 10.0 mi NW 3.5 mph - N/A   Clear
10:54 AM 84.9 °F 84.8 °F 60.1 °F 43% 30.14 in 10.0 mi Variable 4.6 mph - N/A   Clear
11:54 AM 86.0 °F 85.7 °F 60.1 °F 41% 30.12 in 10.0 mi West 3.5 mph - N/A   Clear
12:54 PM 87.1 °F 86.1 °F 57.9 °F 37% 30.10 in 10.0 mi Variable 3.5 mph - N/A   Clear
1:54 PM 89.1 °F 88.2 °F 59.0 °F 36% 30.08 in 10.0 mi NW 5.8 mph - N/A   Clear
2:54 PM 90.0 °F 89.1 °F 59.0 °F 35% 30.05 in 10.0 mi Variable 5.8 mph - N/A   Clear
3:54 PM 91.0 °F 90.2 °F 59.0 °F 34% 30.03 in 10.0 mi NE 4.6 mph - N/A   Clear
4:54 PM 91.0 °F 88.9 °F 55.0 °F 29% 30.00 in 10.0 mi NNE 8.1 mph - N/A   Clear
5:54 PM 91.4 °F 90.7 °F 59.0 °F 34% 30.02 in 10.0 mi Calm Calm - N/A   Clear
6:54 PM 88.0 °F 87.1 °F 59.0 °F 37% 29.99 in 10.0 mi East 4.6 mph - N/A   Clear
7:54 PM 84.9 °F 84.4 °F 59.0 °F 41% 30.00 in 10.0 mi East 3.5 mph - N/A   Clear
8:54 PM 82.0 °F 82.1 °F 59.0 °F 45% 30.01 in 10.0 mi East 3.5 mph - N/A   Clear
9:54 PM 79.0 °F - 61.0 °F 54% 30.01 in 10.0 mi East 5.8 mph - N/A   Clear
10:54 PM 77.0 °F - 62.1 °F 60% 30.01 in 10.0 mi ESE 8.1 mph - N/A   Clear
11:54 PM 75.0 °F - 63.0 °F 66% 30.02 in 10.0 mi ESE 5.8 mph - N/A   Clear